Location: Gülübeli Geçidi
(36.8411°N, 29.7411°E)
Time: 08:33:32
(UTC+00:00)

Cosmos 1437 Rocket - Pass Details

Date: 15 May 2026
Orbit: 439 x 476 km, 81.2° (Epoch: 6 June)

Event Time Altitude Azimuth Distance (km) Brightness Sun altitude
Exits shadow 18:28:46 30° 100° (E) 870 3.3 -15.6°
Maximum altitude 18:28:58 30° 93° (E) 866 3.4 -15.6°
Drops below altitude 10° 18:32:07 10° 31° (NNE) 1,636 5.3 -16.1°
Sets 18:34:23 0° 20° (NNE) 2,524 6.5 -16.5°
